Weather History for Willmar, MN

Change the Weather History Date:

Saturday, April 12, 2014

  Actual Average (KLJF) Record (KLJF)
Temperature  
Mean Temperature 52 °F -  
Max Temperature 60 °F 55 °F 82 °F (1968)
Min Temperature 42 °F 33 °F 3 °F (1997)
Degree Days  
Heating Degree Days 13    
Growing Degree Days 2 (Base 50)    
Moisture  
Dew Point 40 °F    
Average Humidity 65    
Maximum Humidity 87    
Minimum Humidity 47    
Precipitation  
Precipitation 0.00 in - - ()
Sea Level Pressure  
Sea Level Pressure 29.75 in    
Wind  
Wind Speed 13 mph (East)    
Max Wind Speed 26 mph    
Max Gust Speed 34 mph    
Visibility 10 miles    
Events Rain , Thunderstorm    
Averages and records for this station are not official NWS values.
T = Trace of Precipitation, MM = Missing Value Source: NWS Daily Summary

Daily Weather History Graph

Daily Weather History Graph

Search for Another Location

Airport:

Trip Planner

Search our weather history database for the weather conditions in past years. The results will help you decide how hot, cold, wet, or windy it might be!

Date:

Astronomy

Apr. 12, 2014 Rise Set
Actual Time 6:40 AM CDT 8:02 PM CDT
Civil Twilight 6:10 AM CDT 8:32 PM CDT
Nautical Twilight 5:33 AM CDT 9:09 PM CDT
Astronomical Twilight 4:54 AM CDT 9:49 PM CDT
Moon 5:36 PM CDT (4/12) 5:15 AM CDT (4/12)
Length of Visible Light 14h 22m
Length of Day
13h 21m
Waxing Gibbous, 93% of the Moon is Illuminated
Apr 12
Waxing Gibbous
Apr 15
Full
Apr 22
Last Quarter
Apr 29
New
May 6
First Quarter

Hourly Weather History & Observations

Time (CDT) Temp. Windchill Dew Point Humidity Pressure Visibility Wind Dir Wind Speed Gust Speed Precip Events Conditions
12:16 AM 51.8 °F - 33.8 °F 50% 29.85 in 10.0 mi ESE 10.4 mph - N/A   Scattered Clouds
12:35 AM 50.0 °F - 33.8 °F 54% 29.87 in 10.0 mi ESE 6.9 mph - N/A   Scattered Clouds
12:56 AM 50.0 °F - 35.6 °F 58% 29.88 in 10.0 mi ESE 8.1 mph - N/A   Scattered Clouds
1:15 AM 50.0 °F - 35.6 °F 58% 29.87 in 10.0 mi East 8.1 mph - N/A   Clear
1:36 AM 51.8 °F - 33.8 °F 50% 29.86 in 10.0 mi ESE 5.8 mph - N/A   Scattered Clouds
1:55 AM 51.8 °F - 33.8 °F 50% 29.84 in 10.0 mi East 12.7 mph - N/A   Scattered Clouds
2:16 AM 53.6 °F - 33.8 °F 47% 29.86 in 10.0 mi East 8.1 mph - N/A   Scattered Clouds
2:36 AM 51.8 °F - 33.8 °F 50% 29.84 in 10.0 mi ENE 10.4 mph - N/A   Scattered Clouds
2:55 AM 51.8 °F - 33.8 °F 50% 29.85 in 10.0 mi ENE 11.5 mph - N/A   Scattered Clouds
3:16 AM 50.0 °F - 35.6 °F 58% 29.85 in 10.0 mi NNE 12.7 mph - N/A   Mostly Cloudy
3:36 AM 48.2 °F - 33.8 °F 58% 29.86 in 10.0 mi NE 11.5 mph - N/A   Light Drizzle
3:55 AM 48.2 °F - 33.8 °F 58% 29.83 in 10.0 mi ENE 13.8 mph 19.6 mph N/A   Light Drizzle
4:16 AM 46.4 °F 41.9 °F 35.6 °F 66% 29.83 in 10.0 mi ENE 9.2 mph - N/A Rain Light Rain
4:35 AM 46.4 °F 40.7 °F 35.6 °F 66% 29.80 in 10.0 mi ENE 12.7 mph - N/A Rain Light Rain
4:56 AM 46.4 °F 39.8 °F 35.6 °F 66% 29.81 in 10.0 mi NE 16.1 mph 23.0 mph N/A   Overcast
5:16 AM 46.4 °F 39.0 °F 37.4 °F 71% 29.79 in 10.0 mi ENE 19.6 mph 24.2 mph N/A Rain Light Rain
5:35 AM 46.4 °F 39.0 °F 37.4 °F 71% 29.76 in 10.0 mi ENE 19.6 mph 27.6 mph N/A Thunderstorm Thunderstorm
5:56 AM 46.4 °F 38.5 °F 37.4 °F 71% 29.77 in 10.0 mi ENE 21.9 mph 29.9 mph N/A   Scattered Clouds
6:15 AM 46.4 °F 38.3 °F 37.4 °F 71% 29.74 in 10.0 mi East 23.0 mph 33.4 mph N/A   Scattered Clouds
6:36 AM 46.4 °F 38.3 °F 37.4 °F 71% 29.73 in 10.0 mi East 23.0 mph 34.5 mph N/A   Clear
6:56 AM 46.4 °F 38.1 °F 37.4 °F 71% 29.74 in 10.0 mi East 24.2 mph 31.1 mph N/A   Mostly Cloudy
7:15 AM 46.4 °F 38.1 °F 37.4 °F 71% 29.73 in 10.0 mi East 24.2 mph 34.5 mph N/A   Scattered Clouds
7:36 AM 46.4 °F 38.1 °F 37.4 °F 71% 29.72 in 10.0 mi East 24.2 mph 33.4 mph N/A Thunderstorm Clear
7:55 AM 46.4 °F 37.7 °F 37.4 °F 71% 29.72 in 10.0 mi East 26.5 mph 34.5 mph N/A   Clear
8:15 AM 48.2 °F - 37.4 °F 66% 29.73 in 10.0 mi East 23.0 mph 31.1 mph N/A   Clear
8:36 AM 48.2 °F - 37.4 °F 66% 29.72 in 10.0 mi East 20.7 mph - N/A   Clear
8:55 AM 48.2 °F - 37.4 °F 66% 29.73 in 10.0 mi East 21.9 mph 31.1 mph N/A   Clear
9:16 AM 48.2 °F - 39.2 °F 71% 29.73 in 10.0 mi East 19.6 mph 24.2 mph N/A   Clear
9:35 AM 48.2 °F - 39.2 °F 71% 29.72 in 10.0 mi East 20.7 mph 26.5 mph N/A   Clear
9:56 AM 50.0 °F - 39.2 °F 66% 29.72 in 10.0 mi East 17.3 mph 26.5 mph N/A   Clear
10:15 AM 50.0 °F - 39.2 °F 66% 29.71 in 10.0 mi East 19.6 mph 24.2 mph N/A   Clear
10:35 AM 50.0 °F - 39.2 °F 66% 29.72 in 10.0 mi East 19.6 mph 25.3 mph N/A   Clear
10:56 AM 51.8 °F - 41.0 °F 67% 29.72 in 10.0 mi East 18.4 mph - N/A   Clear
11:15 AM 51.8 °F - 41.0 °F 67% 29.72 in 10.0 mi East 18.4 mph - N/A   Clear
11:36 AM 53.6 °F - 41.0 °F 62% 29.72 in 10.0 mi East 15.0 mph 20.7 mph N/A   Clear
11:55 AM 55.4 °F - 42.8 °F 63% 29.72 in 10.0 mi East 15.0 mph - N/A   Clear
12:16 PM 55.4 °F - 42.8 °F 63% 29.72 in 10.0 mi East 13.8 mph 20.7 mph N/A   Clear
12:35 PM 55.4 °F - 42.8 °F 63% 29.72 in 10.0 mi ENE 12.7 mph - N/A   Clear
12:56 PM 57.2 °F - 42.8 °F 59% 29.72 in 10.0 mi East 12.7 mph 18.4 mph N/A   Clear
1:15 PM 57.2 °F - 42.8 °F 59% 29.72 in 10.0 mi East 11.5 mph 16.1 mph N/A   Clear
1:36 PM 57.2 °F - 42.8 °F 59% 29.71 in 10.0 mi East 12.7 mph - N/A   Clear
1:55 PM 57.2 °F - 42.8 °F 59% 29.71 in 10.0 mi East 11.5 mph - N/A   Clear
2:15 PM 59.0 °F - 42.8 °F 55% 29.71 in 10.0 mi East 10.4 mph - N/A   Clear
2:36 PM 59.0 °F - 44.6 °F 59% 29.71 in 10.0 mi ENE 12.7 mph - N/A   Scattered Clouds
2:55 PM 59.0 °F - 44.6 °F 59% 29.70 in 10.0 mi ENE 12.7 mph - N/A   Scattered Clouds
3:16 PM 59.0 °F - 44.6 °F 59% 29.71 in 10.0 mi ENE 9.2 mph - N/A   Clear
3:36 PM 57.2 °F - 44.6 °F 63% 29.70 in 10.0 mi East 9.2 mph - N/A   Clear
3:55 PM 59.0 °F - 44.6 °F 59% 29.70 in 10.0 mi East 9.2 mph - N/A   Clear
4:16 PM 60.8 °F - 44.6 °F 55% 29.70 in 10.0 mi East 12.7 mph - N/A   Clear
4:36 PM 59.0 °F - 44.6 °F 59% 29.70 in 10.0 mi East 10.4 mph - N/A   Clear
4:55 PM 59.0 °F - 44.6 °F 59% 29.70 in 10.0 mi East 9.2 mph - N/A   Clear
5:16 PM 59.0 °F - 44.6 °F 59% 29.70 in 10.0 mi ENE 9.2 mph - N/A   Clear
5:36 PM 59.0 °F - 44.6 °F 59% 29.70 in 10.0 mi NE 11.5 mph - N/A   Clear
5:55 PM 57.2 °F - 42.8 °F 59% 29.71 in 10.0 mi ENE 9.2 mph - N/A   Clear
6:16 PM 57.2 °F - 42.8 °F 59% 29.71 in 10.0 mi ENE 10.4 mph - N/A   Clear
6:36 PM 57.2 °F - 42.8 °F 59% 29.72 in 10.0 mi ENE 8.1 mph - N/A   Clear
6:55 PM 55.4 °F - 42.8 °F 63% 29.72 in 10.0 mi ENE 8.1 mph - N/A   Clear
7:16 PM 55.4 °F - 42.8 °F 63% 29.73 in 10.0 mi East 5.8 mph - N/A   Clear
7:36 PM 53.6 °F - 42.8 °F 67% 29.73 in 10.0 mi ENE 8.1 mph - N/A   Clear
7:55 PM 51.8 °F - 42.8 °F 71% 29.74 in 10.0 mi ENE 8.1 mph - N/A   Clear
8:16 PM 50.0 °F - 41.0 °F 71% 29.75 in 10.0 mi ENE 8.1 mph - N/A   Clear
8:36 PM 48.2 °F - 41.0 °F 76% 29.75 in 10.0 mi ENE 8.1 mph - N/A   Clear
8:55 PM 48.2 °F - 39.2 °F 71% 29.76 in 10.0 mi ENE 5.8 mph - N/A   Clear
9:16 PM 48.2 °F - 41.0 °F 76% 29.76 in 10.0 mi ENE 9.2 mph - N/A   Clear
9:36 PM 48.2 °F - 41.0 °F 76% 29.76 in 10.0 mi ENE 9.2 mph - N/A   Clear
9:55 PM 46.4 °F 42.4 °F 41.0 °F 81% 29.75 in 10.0 mi ENE 8.1 mph - N/A   Clear
10:16 PM 46.4 °F 41.9 °F 39.2 °F 76% 29.75 in 10.0 mi ENE 9.2 mph - N/A   Clear
10:36 PM 44.6 °F 41.4 °F 39.2 °F 81% 29.74 in 10.0 mi NE 5.8 mph - N/A   Clear
10:55 PM 44.6 °F 40.7 °F 39.2 °F 81% 29.74 in 10.0 mi NE 6.9 mph - N/A   Clear
11:15 PM 44.6 °F 39.2 °F 39.2 °F 81% 29.73 in 10.0 mi NE 10.4 mph - N/A   Clear
11:36 PM 44.6 °F 39.2 °F 39.2 °F 81% 29.76 in 10.0 mi East 10.4 mph - N/A   Clear
11:55 PM 42.8 °F 38.6 °F 39.2 °F 87% 29.75 in 10.0 mi ENE 6.9 mph - N/A   Clear